Location: Barruelo
(41.2448°N, 3.8231°W)
Time: 18:38:38
(UTC+00:00)

Cosmos 2058 Rocket - Visible Passes

Search period start: 07 March 2026 00:00
Search period end: 17 March 2026 00:00
Orbit: 605 x 631 km, 82.5° (Epoch: 7 March)

Date Brightness Start Highest point End Pass type
(mag) Time Alt. Az. Time Alt. Az. Time Alt. Az.
7 Mar 6.1 19:44:03 10° NW 19:47:08 18° W 19:50:12 10° SW visible
9 Mar 3.8 18:39:16 10° NNW 18:43:42 61° W 18:48:05 10° S visible
10 Mar 5.2 18:56:37 10° NNW 19:00:36 32° W 19:04:33 10° SSW visible
11 Mar 6.7 05:51:57 10° ESE 05:54:07 14° E 05:56:16 10° NE visible
11 Mar 6.3 19:14:23 10° NW 19:17:24 18° W 19:20:24 10° SW visible
15 Mar 6.5 05:22:05 10° ESE 05:24:22 14° E 05:26:38 10° NE visible
15 Mar 6.5 18:44:42 10° NW 18:47:40 18° W 18:50:36 10° SW visible
16 Mar 5.7 05:37:30 10° SE 05:41:07 25° E 05:44:45 10° NNE visible
